When you browse on this site, cookies collect data to enhance your experience and personalize the content and advertising you see.
Visit our Privacy Policy to learn more. By continuing to use the site, you agree to this use of cookies and data.

Previsão horária em Abazivka

Hoje, 25 Setembro, Sexta-feira

Tempo Temperatura Precipitação Vento Pressão Humidade
00:00 +18°C° 0 mm 2 m/s 748 mmHg 54%
01:00 +17°C° 0 mm 3 m/s 748 mmHg 57%
02:00 +17°C° 0 mm 3 m/s 748 mmHg 59%
03:00 +16°C° 0 mm 3 m/s 748 mmHg 59%
04:00 +16°C° 0 mm 3 m/s 748 mmHg 60%
05:00 +14°C° 0 mm 3 m/s 748 mmHg 60%
06:00 +17°C° 0 mm 3 m/s 748 mmHg 53%
07:00 +18°C° 0 mm 4 m/s 748 mmHg 45%
08:00 +20°C° 0 mm 4 m/s 748 mmHg 37%
09:00 +22°C° 0 mm 4 m/s 748 mmHg 35%
10:00 +25°C° 0 mm 5 m/s 748 mmHg 33%
11:00 +27°C° 0 mm 6 m/s 748 mmHg 31%
12:00 +28°C° 0 mm 5 m/s 747 mmHg 31%
13:00 +28°C° 0 mm 5 m/s 747 mmHg 31%
14:00 +29°C° 0 mm 5 m/s 747 mmHg 31%
15:00 +28°C° 0 mm 4 m/s 746 mmHg 33%
16:00 +27°C° 0 mm 4 m/s 746 mmHg 36%
17:00 +26°C° 0 mm 3 m/s 746 mmHg 39%
18:00 +24°C° 0 mm 3 m/s 746 mmHg 40%
19:00 +22°C° 0 mm 3 m/s 746 mmHg 42%
20:00 +20°C° 0 mm 4 m/s 746 mmHg 44%
21:00 +20°C° 0 mm 4 m/s 746 mmHg 45%
22:00 +19°C° 0 mm 4 m/s 746 mmHg 45%
23:00 +18°C° 0 mm 4 m/s 746 mmHg 46%

Amanhã, 26 Setembro, Sábado

Tempo Temperatura Precipitação Vento Pressão Humidade
00:00 +18°C° 0 mm 4 m/s 746 mmHg 48%
01:00 +17°C° 0 mm 3 m/s 746 mmHg 50%
02:00 +17°C° 0 mm 3 m/s 745 mmHg 53%
03:00 +15°C° 0 mm 4 m/s 745 mmHg 54%
04:00 +15°C° 0 mm 4 m/s 745 mmHg 54%
05:00 +15°C° 0 mm 4 m/s 745 mmHg 55%
06:00 +17°C° 0 mm 4 m/s 745 mmHg 51%
07:00 +17°C° 0 mm 5 m/s 745 mmHg 47%
08:00 +20°C° 0 mm 5 m/s 745 mmHg 43%
09:00 +22°C° 0 mm 6 m/s 745 mmHg 41%
10:00 +24°C° 0 mm 6 m/s 745 mmHg 38%
11:00 +27°C° 0 mm 7 m/s 745 mmHg 35%
12:00 +28°C° 0 mm 7 m/s 745 mmHg 33%
13:00 +29°C° 0 mm 7 m/s 744 mmHg 31%
14:00 +30°C° 0 mm 6 m/s 744 mmHg 29%
15:00 +29°C° 0 mm 6 m/s 744 mmHg 28%
16:00 +28°C° 0 mm 5 m/s 744 mmHg 27%
17:00 +27°C° 0 mm 4 m/s 744 mmHg 26%
18:00 +25°C° 0 mm 5 m/s 744 mmHg 27%
19:00 +23°C° 0 mm 5 m/s 744 mmHg 27%
20:00 +21°C° 0 mm 5 m/s 744 mmHg 27%
21:00 +21°C° 0 mm 5 m/s 744 mmHg 28%
22:00 +21°C° 0 mm 6 m/s 744 mmHg 29%
23:00 +20°C° 0 mm 6 m/s 744 mmHg 30%

Depois de amanhã, 27 Setembro, Domingo

Tempo Temperatura Precipitação Vento Pressão Humidade
00:00 +20°C° 0 mm 6 m/s 744 mmHg 32%
01:00 +20°C° 0 mm 7 m/s 744 mmHg 35%
02:00 +20°C° 0 mm 7 m/s 744 mmHg 38%
03:00 +18°C° 0 mm 7 m/s 744 mmHg 40%
04:00 +18°C° 0 mm 7 m/s 744 mmHg 42%
05:00 +17°C° 0 mm 8 m/s 744 mmHg 44%
06:00 +18°C° 0.1 mm 8 m/s 745 mmHg 45%
07:00 +18°C° 0.1 mm 8 m/s 745 mmHg 45%
08:00 +18°C° 0.1 mm 9 m/s 745 mmHg 45%
09:00 +19°C° 0.2 mm 9 m/s 745 mmHg 45%
10:00 +21°C° 0.2 mm 9 m/s 745 mmHg 44%
11:00 +22°C° 0.2 mm 9 m/s 745 mmHg 43%
12:00 +23°C° 0 mm 9 m/s 745 mmHg 42%
13:00 +24°C° 0 mm 8 m/s 745 mmHg 40%
14:00 +26°C° 0 mm 8 m/s 745 mmHg 39%
15:00 +24°C° 0.3 mm 7 m/s 745 mmHg 46%
16:00 +23°C° 0.3 mm 6 m/s 745 mmHg 54%
17:00 +21°C° 0.3 mm 6 m/s 745 mmHg 61%
18:00 +21°C° 0.4 mm 6 m/s 745 mmHg 67%
19:00 +20°C° 0.4 mm 6 m/s 746 mmHg 73%
20:00 +19°C° 0.4 mm 6 m/s 746 mmHg 78%
21:00 +17°C° 0.1 mm 5 m/s 746 mmHg 81%
22:00 +17°C° 0.1 mm 4 m/s 747 mmHg 84%
23:00 +17°C° 0.1 mm 3 m/s 747 mmHg 87%

28 Setembro, Segunda-feira

Tempo Temperatura Precipitação Vento Pressão Humidade
00:00 +16°C° 0 mm 3 m/s 747 mmHg 86%
01:00 +14°C° 0 mm 3 m/s 748 mmHg 84%
02:00 +13°C° 0 mm 3 m/s 748 mmHg 83%
03:00 +14°C° 0 mm 2 m/s 749 mmHg 86%
04:00 +14°C° 0 mm 2 m/s 749 mmHg 89%
05:00 +13°C° 0 mm 2 m/s 750 mmHg 92%
06:00 +14°C° 0 mm 2 m/s 750 mmHg 85%
07:00 +15°C° 0 mm 2 m/s 750 mmHg 79%
08:00 +16°C° 0 mm 2 m/s 751 mmHg 72%
09:00 +19°C° 0 mm 1 m/s 751 mmHg 63%
10:00 +21°C° 0 mm 1 m/s 751 mmHg 53%
11:00 +23°C° 0 mm 1 m/s 752 mmHg 44%
12:00 +24°C° 0 mm 1 m/s 751 mmHg 39%
13:00 +25°C° 0 mm 1 m/s 751 mmHg 35%
14:00 +26°C° 0 mm 1 m/s 751 mmHg 30%
15:00 +24°C° 0 mm 1 m/s 751 mmHg 33%
16:00 +23°C° 0 mm 1 m/s 751 mmHg 35%
17:00 +21°C° 0 mm 2 m/s 751 mmHg 38%
18:00 +20°C° 0 mm 2 m/s 751 mmHg 40%
19:00 +19°C° 0 mm 3 m/s 751 mmHg 42%
20:00 +18°C° 0 mm 3 m/s 751 mmHg 44%
21:00 +18°C° 0 mm 3 m/s 751 mmHg 45%
22:00 +18°C° 0 mm 3 m/s 750 mmHg 46%
23:00 +17°C° 0 mm 3 m/s 750 mmHg 48%

29 Setembro, Terça-feira

Tempo Temperatura Precipitação Vento Pressão Humidade
00:00 +17°C° 0 mm 3 m/s 750 mmHg 51%
01:00 +17°C° 0 mm 3 m/s 750 mmHg 53%
02:00 +16°C° 0 mm 2 m/s 749 mmHg 56%
03:00 +16°C° 0 mm 3 m/s 749 mmHg 59%
04:00 +16°C° 0 mm 3 m/s 749 mmHg 63%
05:00 +14°C° 0 mm 3 m/s 748 mmHg 66%
06:00 +17°C° 0 mm 3 m/s 748 mmHg 63%
07:00 +18°C° 0 mm 3 m/s 748 mmHg 59%
08:00 +19°C° 0 mm 4 m/s 748 mmHg 56%
09:00 +21°C° 0 mm 4 m/s 747 mmHg 51%
10:00 +23°C° 0 mm 4 m/s 747 mmHg 46%
11:00 +26°C° 0 mm 5 m/s 747 mmHg 41%
12:00 +26°C° 0 mm 5 m/s 746 mmHg 41%
13:00 +26°C° 0 mm 6 m/s 746 mmHg 41%
14:00 +26°C° 0 mm 6 m/s 745 mmHg 40%
15:00 +24°C° 0.1 mm 6 m/s 745 mmHg 46%
16:00 +22°C° 0.1 mm 6 m/s 745 mmHg 52%
17:00 +20°C° 0.1 mm 6 m/s 744 mmHg 58%
18:00 +20°C° 0.3 mm 6 m/s 744 mmHg 59%
19:00 +19°C° 0.3 mm 6 m/s 744 mmHg 61%
20:00 +17°C° 0.3 mm 6 m/s 743 mmHg 62%
21:00 +17°C° 0.4 mm 6 m/s 743 mmHg 65%
22:00 +16°C° 0.4 mm 5 m/s 742 mmHg 68%
23:00 +16°C° 0.4 mm 5 m/s 742 mmHg 72%

30 Setembro, Quarta-feira

Tempo Temperatura Precipitação Vento Pressão Humidade
00:00 +17°C° 0.5 mm 5 m/s 742 mmHg 71%
01:00 +17°C° 0.5 mm 5 m/s 741 mmHg 71%
02:00 +17°C° 0.5 mm 6 m/s 741 mmHg 70%
03:00 +17°C° 2.7 mm 5 m/s 741 mmHg 77%
04:00 +17°C° 2.7 mm 5 m/s 741 mmHg 84%
05:00 +17°C° 2.7 mm 4 m/s 741 mmHg 91%
06:00 +16°C° 0.5 mm 5 m/s 741 mmHg 90%
07:00 +16°C° 0.5 mm 6 m/s 741 mmHg 88%
08:00 +16°C° 0.5 mm 7 m/s 741 mmHg 86%
09:00 +17°C° 0.1 mm 7 m/s 741 mmHg 83%
10:00 +17°C° 0.1 mm 7 m/s 741 mmHg 79%
11:00 +18°C° 0.1 mm 7 m/s 742 mmHg 76%
12:00 +20°C° 0.2 mm 7 m/s 742 mmHg 70%
13:00 +21°C° 0.2 mm 7 m/s 742 mmHg 65%
14:00 +22°C° 0.2 mm 7 m/s 742 mmHg 59%
15:00 +21°C° 0.4 mm 7 m/s 742 mmHg 63%
16:00 +20°C° 0.4 mm 6 m/s 742 mmHg 68%
17:00 +19°C° 0.4 mm 6 m/s 742 mmHg 72%
18:00 +17°C° 0.2 mm 6 m/s 742 mmHg 75%
19:00 +16°C° 0.2 mm 6 m/s 742 mmHg 77%
20:00 +16°C° 0.2 mm 5 m/s 743 mmHg 80%
21:00 +15°C° 0 mm 6 m/s 742 mmHg 81%
22:00 +15°C° 0 mm 6 m/s 742 mmHg 83%
23:00 +14°C° 0 mm 6 m/s 742 mmHg 85%
Mostrar mais